Погода в Чатем-Кенте

Канада     42°24′28″N   82°11′28″W
В апреле 2022 года жителям России запретили посещать сайт meteo.paraplan.net по решению Генеральной прокуратуры. Аудитория сайта уменьшилась в 10 раз. Владельцы сайта не видят смысла в поддержке погодного сервера в таких условиях. Сайт будет закрыт в октябре.
темп.,
°C
ветер,
м/с
пор.,
м/с
влажн.,
%
обл.,
%
осадки,
мм/ч
давл.,
гПа
погр.,
м
25 сентября, вс
вс2523:00+14ю3671100 0.0 1008127
02:00+14юз3685100 0.2 1005115
05:00+14зюз3793100 1.1 1004212
08:00+13зсз3793100 1.1 1003275
11:00+14зсз2593100 0.7 1003361
14:00+13сз3692100 2.4 1002321
17:00+17з686691 0.1 10021178
20:00+13зсз51183100 0.8 1003483
26 сентября, пн
пн2623:00+12з511855 0.0 1003326
02:00+10з3689100 0.0 1002104
05:00+11з511896 0.9 1002382
08:00+11з81388100 2.3 1003839
11:00+12з8118699 1.8 1004894
14:00+13з91280100 2.6 10041117
17:00+13з8127599 0.2 10051040
20:00+12з61277100 0.3 1007728
27 сентября, вт
вт2723:00+12з61083100 0.1 1008698
02:00+11зсз71188100 0.6 1008629
05:00+11зсз61284100 0.1 1009708
08:00+11зсз61180100 0.2 1011755
11:00+12зсз81165100 0.3 10131061
14:00+13зсз8105398 0.7 10131552
17:00+13зсз8115249 0.4 10141585
20:00+10зсз61268100 0.4 1017603
28 сентября, ср
ср2823:00+8сз6128063 0.0 1019721
02:00+8зсз71487100 0.8 1020727
05:00+8сз7138282 0.1 1022554
08:00+7сз6118413 0.1 1025421
11:00+12сз686156 0.0 1027991
14:00+14ссз7760100 0.1 10281280
17:00+13ссз6862100 0.1 10281115
20:00+10ссз5976100 0.3 1029474
29 сентября, чт
чт2923:00+9ссз4874100 0.1 1031331
02:00+9ссз376957 0.1 1031253
05:00+6с33790 0.0 103139
08:00+6ссз34780 0.0 103274
11:00+13с335826 0.0 10321041
14:00+17всв22431 0.0 10301463
17:00+17всв22370 0.0 10281430
20:00+10юв23710 0.0 102929